Dewpoint
29 29 27 25 23 22 20 18 15 14 14 14 12 11 11 15 18 15 15 31 41 42 44 56 57 58 58 58 58 59 60 60 59 57 55 54 54 54 55 58 58 60 57 54
24 22 23 24 22 22 21 20 18 17 17 16 14 13 12 12 13 16 16 31 37 41 42 46 56 58 58 58 58 59 59 60 59 57 56 55 55 57 58 58 59 57 55 52
21 21 20 19 19 19 21 20 20 21 19 16 14 13 15 15 14 16 18 25 38 40 43 42 52 58 58 57 57 57 59 59 59 58 56 56 57 57 56 55 54 53 51 49
22 22 20 22 24 26 25 27 24 23 22 16 16 12 13 14 14 15 15 19 27 38 42 44 49 57 57 58 58 57 58 59 59 59 57 56 56 55 54 54 51 49 47 45
22 23 27 28 27 26 26 29 27 28 27 20 16 16 14 16 16 14 15 15 23 30 38 39 44 54 57 58 57 58 58 58 59 59 57 56 55 54 52 52 49 45 43 42
25 26 24 24 24 27 30 31 29 28 26 17 18 18 15 11 12 13 12 15 22 29 33 39 43 55 57 57 57 57 58 57 58 58 58 55 54 52 52 51 47 43 40 40
20 19 24 31 29 25 32 28 18 16 16 12 15 17 16 11 7 9 12 13 22 27 31 38 42 51 55 56 57 58 58 57 58 58 57 55 54 53 52 49 47 43 39 37
16 12 22 33 28 26 25 26 15 9 6 9 15 11 11 15 12 12 12 18 22 25 31 35 41 47 55 56 56 58 58 57 58 58 57 55 54 54 52 49 47 44 42 39
17 15 20 26 30 32 27 23 25 20 17 15 15 16 15 15 14 14 13 18 22 24 36 41 42 43 54 56 56 56 58 58 58 58 56 55 54 54 51 49 47 44 39 35
22 15 16 20 34 33 29 31 22 20 13 14 17 20 18 30 11 14 13 16 27 29 33 37 43 46 54 56 56 56 56 57 57 56 56 55 54 52 50 47 45 40 35 33
21 24 18 21 27 26 29 26 26 20 20 14 14 26 32 36 37 36 25 24 32 33 36 41 43 52 54 55 55 56 56 56 56 55 56 55 54 50 47 45 40 37 35 32
24 24 16 18 26 33 28 27 27 23 19 23 21 21 34 35 38 41 41 45 46 47 46 48 49 51 53 53 54 55 55 55 54 55 53 50 46 44 41 40 37 35 33 32
28 20 13 15 28 27 25 26 27 27 28 24 22 27 31 33 36 39 41 42 42 42 43 43 43 43 43 41 41 41 41 41 42 43 43 41 40 39 38 36 35 34 34 34
28 23 19 14 17 23 22 22 24 23 22 21 24 23 27 30 35 37 38 39 39 39 39 39 39 39 39 40 40 40 40 41 40 40 39 38 38 38 37 37 37 37 38 38
25 20 22 23 24 25 22 21 23 18 20 19 24 22 26 31 35 36 37 37 36 36 37 38 37 38 38 38 38 38 39 39 39 38 38 38 38 39 39 38 38 38 37 37
27 19 23 21 28 25 19 20 23 19 19 23 25 23 29 31 34 34 34 35 35 35 36 36 37 37 38 38 38 38 38 38 38 37 37 37 37 36 35 35 35 34 33 33
24 23 20 16 24 25 17 19 21 20 20 21 17 26 27 24 26 29 32 33 33 34 35 36 36 37 37 37 37 37 37 37 36 35 35 34 34 33 33 33 32 32 31 30
24 22 23 18 21 13 22 25 24 22 20 21 21 25 29 26 24 24 27 29 30 31 32 32 32 32 33 34 34 34 34 34 33 33 33 32 32 32 32 31 31 30 30 28
30 25 20 19 20 25 19 21 20 20 18 22 20 21 26 31 26 22 23 25 24 25 28 29 29 30 29 30 31 30 30 29 29 29 30 31 32 31 31 30 30 30 31 30
25 29 22 21 16 11 19 21 22 28 15 22 21 19 20 23 16 16 21 21 22 22 21 22 23 24 24 26 28 26 25 25 25 26 27 28 29 29 28 28 28 29 29 28
21 20 18 18 19 20 24 22 17 9 13 23 22 20 18 14 17 20 20 19 20 20 20 20 18 17 19 21 22 21 21 20 21 22 22 22 23 24 25 25 25 25 26 25
21 19 18 16 12 11 25 19 14 20 24 23 22 21 19 19 19 18 17 17 17 16 15 15 13 13 14 15 15 16 16 18 19 19 18 19 20 20 21 23 21 21 22 22
20 22 20 22 20 26 26 23 24 24 21 20 20 22 19 16 14 11 11 11 11 11 11 11 9 8 8 10 12 13 15 17 16 17 16 16 17 18 18 18 17 17 18 17
26 25 26 26 27 24 22 23 22 22 19 17 16 15 14 11 11 11 10 10 10 10 10 9 8 7 6 7 8 9 11 15 13 13 13 13 13 13 15 15 15 15 14 13
24 22 23 27 28 26 22 18 17 18 18 15 14 14 13 11 10 10 10 9 8 7 7 7 6 5 5 5 6 7 9 11 12 10 10 11 11 11 10 11 13 13 13 13
22 21 24 24 24 23 17 15 14 13 13 13 13 12 12 12 10 10 9 8 7 6 6 5 4 3 3 3 4 5 7 8 8 8 7 7 8 7 7 7 6 12 13 13
Lifted_Index
1 1 0 0 0 0 0 1 1 1 1 1 2 3 4 5 7 8 7 5 3 3 2 1 -1 -1 -1 -1 -1 -0 -0 -0 0 1 1 0 0 1 2 3 2 2 2 2
2 1 1 1 1 1 1 1 1 1 1 1 1 2 3 5 7 8 8 6 4 3 2 1 -0 -1 -1 -1 -1 -0 -0 -0 0 1 1 0 0 1 2 2 2 2 2 2
3 2 2 2 2 1 1 1 1 1 1 1 1 1 2 4 7 8 8 8 5 4 3 2 0 -1 -1 -1 -1 -0 -0 -0 0 1 1 1 1 1 1 2 2 2 2 2
3 3 3 2 2 2 2 1 1 1 1 1 1 1 2 4 6 8 9 9 7 5 3 2 1 -0 -1 -1 -1 -0 -0 -0 0 1 1 1 1 1 1 1 2 2 2 2
4 3 3 3 3 3 2 2 1 1 1 1 1 2 2 3 5 7 9 10 9 6 4 3 2 0 -0 -1 -1 -1 -0 -0 0 0 1 1 1 1 1 1 2 2 2 2
4 4 4 4 3 3 2 2 1 1 0 1 1 1 2 4 5 7 9 10 9 7 5 3 2 1 -0 -0 -0 -0 -1 -0 0 0 1 1 1 1 2 2 3 3 2 1
4 4 4 4 3 3 2 1 1 0 0 0 1 1 2 4 5 6 7 9 9 7 5 3 2 1 0 -0 -0 -0 -1 -0 -0 0 1 1 1 2 2 3 4 3 2 2
3 3 4 4 3 2 2 1 0 0 0 0 1 1 2 3 4 5 6 7 8 7 5 4 3 2 1 -0 -0 -0 -1 -1 -0 0 1 1 1 2 3 3 4 3 2 2
3 3 4 4 3 2 1 1 1 0 0 0 1 2 2 3 4 5 6 7 7 7 6 4 3 2 1 -0 -0 -0 -0 -1 -0 0 0 1 1 1 2 3 3 3 2 2
5 4 4 4 4 3 2 1 1 1 1 0 1 1 1 2 3 4 5 6 6 6 5 4 3 2 1 0 0 0 0 -0 -0 0 1 0 1 1 2 2 3 3 2 2
7 5 4 4 4 3 2 2 2 2 2 1 1 1 1 1 1 2 4 4 5 5 4 4 3 1 0 -0 0 1 1 0 -0 0 1 1 1 2 2 3 3 2 2 1
8 6 4 3 4 3 3 3 3 3 3 2 1 2 2 1 0 1 2 3 3 3 3 3 2 1 -0 -0 0 1 1 1 0 0 1 1 1 2 3 3 3 2 1 1
8 6 3 3 3 4 4 4 4 4 3 2 2 3 2 1 -0 1 2 3 3 3 2 2 1 1 0 0 0 1 1 1 1 1 1 1 1 2 3 4 4 3 3 2
7 5 3 2 3 4 5 5 5 4 3 3 3 3 2 1 0 1 2 2 2 2 2 2 1 1 1 1 1 1 2 1 1 2 2 3 3 4 5 5 6 6 7 7
6 4 3 3 3 4 5 5 5 4 4 3 3 3 2 2 1 1 1 1 1 1 2 2 2 2 2 2 2 2 3 3 4 4 5 6 7 8 8 9 10 10 11 12
6 4 3 2 3 4 4 5 5 5 5 4 4 4 5 4 2 1 1 1 1 1 2 3 3 4 4 4 4 5 6 6 7 8 9 10 10 11 12 12 13 13 14 14
6 4 3 2 3 4 4 6 7 7 7 6 6 6 7 5 3 2 1 1 1 2 3 4 5 6 7 7 8 8 9 9 10 11 12 12 13 13 13 13 14 14 14 13
6 5 3 3 3 3 5 6 7 8 8 9 8 9 8 7 5 4 4 4 4 4 5 6 7 8 9 9 10 10 10 11 11 12 12 13 13 13 13 13 13 13 12 12
7 6 5 3 3 3 4 6 7 7 8 9 9 9 8 7 5 5 6 7 7 7 8 8 9 10 10 10 11 11 11 11 11 11 12 12 12 12 12 11 11 11 11 11
6 6 5 4 3 3 5 7 7 7 6 7 8 7 7 6 5 6 7 8 8 8 9 9 9 10 10 11 11 11 10 11 11 12 13 13 12 12 11 12 12 12 12 12
4 4 4 3 3 4 6 8 7 6 6 7 7 6 6 6 6 6 7 7 7 8 9 10 10 10 11 12 11 11 11 12 14 14 14 14 14 14 14 14 14 14 15 15
3 3 3 3 4 6 9 9 9 9 9 8 8 7 7 7 7 8 8 8 8 9 11 12 12 12 13 13 13 12 12 14 16 16 16 16 16 16 16 16 16 16 16 16
4 5 5 5 6 9 11 11 11 11 11 10 10 9 8 8 9 10 10 10 10 11 12 13 13 13 14 15 14 14 15 16 17 16 16 16 16 16 17 17 17 17 17 16
7 7 6 6 8 10 12 12 13 12 12 11 11 11 10 10 10 11 11 11 11 12 12 13 13 13 14 15 15 16 17 17 17 17 16 17 17 17 18 19 19 19 19 19
8 7 6 6 9 11 12 12 13 12 12 12 12 11 11 11 11 11 11 11 12 12 13 13 13 13 14 16 17 18 18 18 18 17 17 18 18 19 20 21 21 22 23 23
8 7 5 6 9 11 12 13 12 12 12 11 11 11 11 11 11 11 11 12 12 13 14 14 14 14 15 16 17 18 19 19 18 17 18 18 19 20 21 22 23 24 25 25